Printer-friendly version

IAU Minor Planet Center

Minor Planet Center

MPEC 2004-V23 : 2004 VH1

The following Minor Planet Electronic Circular may be linked-to from your own Web pages, but must not otherwise be redistributed electronically.


Read MPEC 2004-V22 Read MPEC 2004-V24


M.P.E.C. 2004-V23                                Issued 2004 Nov. 5, 13:55 UT

     The Minor Planet Electronic Circulars contain information on unusual
         minor planets and routine data on comets.  They are published
   on behalf of Commission 20 of the International Astronomical Union by the
          Minor Planet Center, Smithsonian Astrophysical Observatory,
                          Cambridge, MA 02138, U.S.A.

                  Supported in part by the Brinson Foundation
             Prepared using the Tamkin Foundation Computer Network

                              MPC@CFA.HARVARD.EDU
          URL http://cfa-www.harvard.edu/iau/mpc.html  ISSN 1523-6714

                                   2004 VH1

Observations:
     K04V01H* C2004 11 04.35054 02 57 20.70 +14 54 17.3          17.1 R EV023703
     K04V01H  C2004 11 04.36103 02 57 16.29 +14 55 29.0          17.7 R EV023703
     K04V01H  C2004 11 04.37071 02 57 12.26 +14 56 35.8          17.8 R EV023703
     K04V01H  C2004 11 04.38057 02 57 08.06 +14 57 44.2          17.8 R EV023703
     K04V01H  C2004 11 04.44388 02 56 41.64 +15 05 00.8          18.0 R EV023703
     K04V01H  C2004 11 04.44778 02 56 40.05 +15 05 27.3          18.2 R EV023703
     K04V01H  C2004 11 04.45170 02 56 38.33 +15 05 55.5          17.2 R EV023703
     K04V01H  C2004 11 05.19835 02 51 26.08 +16 34 40.5          18.2 R EV023649
     K04V01H  C2004 11 05.19981 02 51 25.43 +16 34 51.3          18.2 R EV023649
     K04V01H  C2004 11 05.20127 02 51 24.79 +16 35 01.7          18.3 R EV023649
     K04V01H  C2004 11 05.20274 02 51 24.19 +16 35 12.6          18.2 R EV023649
     K04V01H 2C2004 11 05.29222 02 50 43.91 +16 46 13.7          17.7 R EV023H06
     K04V01H 2C2004 11 05.29518 02 50 42.55 +16 46 35.6          17.8 R EV023H06
     K04V01H 2C2004 11 05.29812 02 50 41.21 +16 46 57.2          17.4 R EV023H06

Observer details:
649 Powell Observatory, Louisburg.  Observers R. Fredrick, R. Trentman.  0.3-m
    Schmidt-Cassegrain + CCD.
703 Catalina Sky Survey.  Observer E. J. Christensen.  Measurers E. C. Beshore,
    C. M. Casey, E. J. Christensen, G. J. Garradd, R. E. Hill, S. M. Larson,
    R. H. McNaught.  0.68-m Schmidt + CCD.
H06 New Mexico Skies Observatory.  Observer R. Hutsebaut.  0.25-m reflector
    + CCD.

Orbital elements:
2004 VH1
Epoch 2005 Jan. 30.0 TT = JDT 2453400.5                 MPC
M   6.66052              (2000.0)            P               Q
n   0.52074861     Peri.   89.09185     -0.56873547     -0.73571351
a   1.5300912      Node    43.39731     +0.36010374     -0.62473019
e   0.4652475      Incl.   32.36475     +0.73950339     -0.26160622
P   1.89           H   21.1           G   0.15           U   9
Residuals in seconds of arc
041104 703  0.2+  0.3+    041104 703  0.7+  0.5-    041105 649  0.9+  0.0
041104 703  0.1-  0.3-    041104 703  0.5-  0.6+    041105 H06  0.1-  0.2-
041104 703  0.3+  0.2-    041105 649  0.4-  0.1+    041105 H06  0.1-  0.0
041104 703  0.7-  0.2+    041105 649  0.3-  0.2+    041105 H06  0.0   0.1-
041104 703  0.1+  0.1-    041105 649  0.0   0.1-

Ephemeris:
2004 VH1                 a,e,i = 1.53, 0.47, 32                  q = 0.8182
Date    TT    R. A. (2000) Decl.     Delta      r     Elong.  Phase     V
2004 11 01    03 16.66   +09 12.1    0.233    1.220   166.5    10.9    19.1
2004 11 11    01 54.92   +30 18.5    0.166    1.147   159.4    17.7    18.4
2004 11 21    22 57.24   +50 08.2    0.172    1.075   116.3    55.4    19.5
2004 12 01    20 21.95   +49 58.4    0.235    1.006    88.2    78.3    20.7
2004 12 11    19 10.63   +45 08.1    0.314    0.943    73.2    88.2    21.6

Timothy B. Spahr             (C) Copyright 2004 MPC           M.P.E.C. 2004-V23

Read MPEC 2004-V22 Read MPEC 2004-V24


Our Web policy. Index to the CBAT/MPC/ICQ pages.


Valid HTML 4.01!